User: anonymous   Login
Location: Oshawa
(43.9000°N, 78.8670°W)
Time: 02:45:38
(UTC-05:00)
Language:

Cosmos 1953 Rocket - Orbit

View from above orbital plane
View from above orbital plane
View from above satellite
View from above satellite

Ground track
Ground track

The orbit data is extracted from the following two-line orbital elements,

1 19211U 88050B   17056.80862896  .00000111  00000-0  10677-4 0  9999
2 19211  82.5274 306.5893 0023171 122.3107 304.0949 14.82947511550289
Epoch (UTC): 25 February 2017 19:24:25
Eccentricity: 0.0023171
inclination: 82.5274°
perigee height: 604 km
apogee height: 636 km
right ascension of ascending node: 306.5893°
argument of perigee: 122.3107°
revolutions per day: 14.82947511
mean anomaly at epoch: 304.0949°
orbit number at epoch: 55028

The dashed part of the orbit path shows where the satellite is in the earth's shadow,  

DLR